Flag for Portugal Weather past 2 weeks in Faro, Portugal

Now
64 °F

Passing clouds.


Feels Like: 64 °F
Forecast: 64 / 85 °F
Wind: 5 mph from North

Location: Faro / Aeroporto

Current Time: Jul 2, 2015 at 7:17:11 AM

Latest Report: Jul 2, 2015 at 6:30 AM


Visibility: N/A

Pressure: 30.07 "Hg

Humidity: 78%

Dew point: 57 °F

Location of FaroLocation

Historic Weather in Faro — Graph

°F

Faro temperature yesterday

Maximum temperature yesterday: 77 °F (at 9:00 PM)
Minimum temperature yesterday: 63 °F (at 2:30 AM)
Average temperature yesterday: 70 °F

Past Weeks' High & Low Weather Summary

 TemperatureHumidityPressure
High95 °F (Jun 27, 10:00 AM)94% (Jun 29, 11:30 PM)30.15 "Hg (Jun 29, 11:30 PM)
Low61 °F (Jun 24, 6:00 AM)18% (Jun 27, 10:00 AM)29.92 "Hg (Jun 20, 2:30 AM)
Average74 °F61%30.03 "Hg
* Reported Jun 17 6:00 AM — Jul 2 6:00 AM, Faro, Weather by CustomWeather, © 2015

Note: Actual official high and low records may vary slightly from our data, if they occured in-between our weather recording intervals... More about our weather records

Advertising

Faro weather history for previous 24 hours

 ConditionsComfort  
Time TempWeatherWind HumidityBarometerVisibility
6:00 AM
Thu, Jul 2
64 °FClear.3 mph83%30.07 "Hg10 mi
5:30 AM64 °FClear.5 mph83%30.07 "Hg10 mi
5:00 AM64 °FPassing clouds.3 mph83%30.07 "HgN/A
4:30 AM66 °FClear.3 mph78%30.07 "Hg10 mi
4:00 AM66 °FClear.7 mph78%30.07 "Hg10 mi
3:30 AM68 °FClear.9 mph78%30.07 "Hg10 mi
3:00 AM68 °FPassing clouds.9 mph78%30.07 "HgN/A
2:30 AM68 °FClear.7 mph78%30.07 "Hg10 mi
2:00 AM70 °FClear.9 mph73%30.07 "Hg10 mi
1:30 AM70 °FClear.9 mph78%30.07 "Hg10 mi
1:00 AM70 °FClear.9 mph78%30.07 "Hg10 mi
12:30 AM70 °FClear.10 mph73%30.07 "Hg10 mi
12:00 AM72 °FClear.10 mph73%30.07 "Hg10 mi
11:30 PM
Wed, Jul 1
72 °FClear.10 mph69%30.07 "Hg10 mi
10:30 PM73 °FClear.13 mph69%30.04 "Hg10 mi
10:00 PM73 °FClear.14 mph69%30.01 "Hg10 mi
9:30 PM75 °FSunny.15 mph65%30.01 "Hg10 mi
9:00 PM77 °FSunny.14 mph61%29.98 "Hg10 mi
8:30 PM73 °FSunny.20 mph78%29.98 "Hg10 mi
8:00 PM73 °FSunny.21 mph78%29.98 "Hg10 mi
7:30 PM73 °FSunny.17 mph78%29.98 "Hg10 mi
7:00 PM73 °FSunny.18 mph78%29.95 "Hg10 mi
6:30 PM73 °FSunny.22 mph74%29.95 "Hg10 mi
6:00 PM75 °FSunny.23 mph69%29.95 "Hg10 mi
5:30 PM75 °FSunny.23 mph69%29.98 "Hg10 mi
5:00 PM75 °FSunny.22 mph69%29.95 "Hg10 mi
4:30 PM75 °FSunny.17 mph69%29.95 "Hg10 mi
4:00 PM75 °FSunny.17 mph69%29.98 "Hg10 mi
3:30 PM75 °FSunny.13 mph74%29.98 "Hg10 mi
3:00 PM73 °FPassing clouds.13 mph69%29.98 "HgN/A
2:30 PM73 °FPassing clouds.14 mph65%30.01 "HgN/A
2:00 PM72 °FPassing clouds.13 mph73%30.01 "HgN/A
1:30 PM73 °FPassing clouds.10 mph74%30.01 "HgN/A
1:00 PM73 °FPassing clouds.9 mph69%30.01 "HgN/A
12:30 PM72 °FPassing clouds.9 mph73%30.01 "HgN/A
12:00 PM72 °FPassing clouds.9 mph73%30.01 "HgN/A
11:30 AM72 °FPassing clouds.8 mph73%30.01 "HgN/A
11:00 AM73 °FScattered clouds.5 mph69%30.01 "HgN/A
10:30 AM70 °FPartly sunny.5 mph78%30.01 "HgN/A
10:00 AM70 °FPartly sunny.1 mph78%30.01 "HgN/A
9:30 AM70 °FPartly sunny.5 mph78%30.01 "HgN/A
9:00 AM70 °FPartly sunny.3 mph78%29.98 "HgN/A
8:30 AM68 °FPassing clouds.2 mph88%29.98 "HgN/A
8:00 AM66 °FSunny.6 mph83%29.95 "Hg10 mi
7:00 AM66 °FClear.6 mph83%29.95 "Hg10 mi
Weather by CustomWeather, © 2015

See weather overviewHow to use our weather pages